TimeEST,TemperatureF,Dew PointF,Humidity,Sea Level PressureIn,VisibilityMPH,Wind Direction,Wind SpeedMPH,Gust SpeedMPH,PrecipitationIn,Events,Conditions,WindDirDegrees,DateUTC
12:15 AM,42.8,23.0,46,30.09,10.0,West,5.8,-,N/A,,Clear,280,2013-02-20 05:15:00
12:35 AM,42.8,21.2,42,30.10,10.0,West,6.9,-,N/A,,Clear,270,2013-02-20 05:35:00
12:55 AM,41.0,21.2,45,30.09,10.0,West,5.8,-,N/A,,Clear,280,2013-02-20 05:55:00
1:15 AM,41.0,21.2,45,30.09,10.0,West,3.5,-,N/A,,Clear,270,2013-02-20 06:15:00
1:35 AM,41.0,21.2,45,30.09,10.0,West,4.6,-,N/A,,Clear,270,2013-02-20 06:35:00
1:55 AM,39.2,21.2,49,30.09,10.0,West,4.6,-,N/A,,Clear,260,2013-02-20 06:55:00
2:15 AM,37.4,21.2,52,30.09,10.0,West,4.6,-,N/A,,Clear,270,2013-02-20 07:15:00
2:35 AM,37.4,21.2,52,30.09,10.0,West,4.6,-,N/A,,Clear,260,2013-02-20 07:35:00
2:55 AM,37.4,21.2,52,30.10,10.0,West,4.6,-,N/A,,Clear,260,2013-02-20 07:55:00
3:15 AM,35.6,21.2,56,30.10,10.0,West,4.6,-,N/A,,Clear,270,2013-02-20 08:15:00
3:35 AM,35.6,21.2,56,30.09,10.0,WNW,3.5,-,N/A,,Clear,290,2013-02-20 08:35:00
3:55 AM,35.6,21.2,56,30.09,10.0,West,4.6,-,N/A,,Clear,260,2013-02-20 08:55:00
4:35 AM,33.8,21.2,60,30.09,10.0,West,3.5,-,N/A,,Clear,260,2013-02-20 09:35:00
4:55 AM,33.8,21.2,60,30.09,10.0,West,4.6,-,N/A,,Clear,280,2013-02-20 09:55:00
5:15 AM,33.8,21.2,60,30.08,10.0,WNW,4.6,-,N/A,,Clear,290,2013-02-20 10:15:00
5:35 AM,33.8,21.2,60,30.08,10.0,West,3.5,-,N/A,,Clear,280,2013-02-20 10:35:00
5:55 AM,32.0,21.2,64,30.09,10.0,WNW,3.5,-,N/A,,Clear,290,2013-02-20 10:55:00
6:15 AM,32.0,21.2,64,30.10,10.0,West,3.5,-,N/A,,Clear,280,2013-02-20 11:15:00
6:35 AM,32.0,21.2,64,30.10,10.0,WNW,3.5,-,N/A,,Clear,290,2013-02-20 11:35:00
7:15 AM,32.0,19.4,60,30.12,10.0,West,4.6,-,N/A,,Clear,270,2013-02-20 12:15:00
7:35 AM,32.0,19.4,60,30.13,10.0,West,5.8,-,N/A,,Clear,260,2013-02-20 12:35:00
7:55 AM,33.8,21.2,60,30.13,10.0,West,3.5,-,N/A,,Clear,260,2013-02-20 12:55:00
8:15 AM,35.6,21.2,56,30.14,10.0,West,4.6,-,N/A,,Clear,260,2013-02-20 13:15:00
8:35 AM,35.6,19.4,52,30.14,10.0,West,6.9,-,N/A,,Clear,270,2013-02-20 13:35:00
8:55 AM,37.4,19.4,48,30.15,10.0,West,6.9,-,N/A,,Clear,280,2013-02-20 13:55:00
9:15 AM,39.2,19.4,45,30.15,10.0,WNW,8.1,-,N/A,,Clear,290,2013-02-20 14:15:00
9:35 AM,41.0,17.6,39,30.14,10.0,West,5.8,-,N/A,,Clear,280,2013-02-20 14:35:00
9:55 AM,42.8,17.6,36,30.14,10.0,WNW,8.1,-,N/A,,Clear,300,2013-02-20 14:55:00
10:15 AM,42.8,17.6,36,30.14,10.0,WNW,6.9,-,N/A,,Clear,290,2013-02-20 15:15:00
10:35 AM,44.6,17.6,34,30.13,10.0,West,9.2,-,N/A,,Clear,270,2013-02-20 15:35:00
10:55 AM,46.4,17.6,32,30.13,10.0,West,8.1,-,N/A,,Clear,270,2013-02-20 15:55:00
11:15 AM,48.2,17.6,30,30.13,10.0,WNW,5.8,-,N/A,,Clear,290,2013-02-20 16:15:00
11:35 AM,50.0,15.8,26,30.12,10.0,WNW,3.5,-,N/A,,Clear,290,2013-02-20 16:35:00
11:55 AM,51.8,17.6,26,30.10,10.0,WSW,3.5,-,N/A,,Clear,250,2013-02-20 16:55:00
12:15 PM,51.8,14.0,22,30.09,10.0,West,4.6,-,N/A,,Clear,280,2013-02-20 17:15:00
12:55 PM,53.6,17.6,24,30.09,10.0,SW,8.1,-,N/A,,Clear,230,2013-02-20 17:55:00
1:15 PM,55.4,17.6,23,30.08,10.0,WNW,9.2,-,N/A,,Clear,300,2013-02-20 18:15:00
1:35 PM,55.4,17.6,23,30.07,10.0,WSW,6.9,-,N/A,,Clear,250,2013-02-20 18:35:00
1:55 PM,55.4,15.8,21,30.06,10.0,West,6.9,-,N/A,,Clear,270,2013-02-20 18:55:00
2:15 PM,55.4,17.6,23,30.06,10.0,WSW,5.8,-,N/A,,Clear,240,2013-02-20 19:15:00
2:35 PM,57.2,15.8,20,30.05,10.0,West,9.2,-,N/A,,Clear,270,2013-02-20 19:35:00
2:55 PM,57.2,17.6,21,30.05,10.0,WSW,6.9,-,N/A,,Clear,240,2013-02-20 19:55:00
3:15 PM,55.4,15.8,21,30.05,10.0,West,4.6,-,N/A,,Clear,260,2013-02-20 20:15:00
3:55 PM,55.4,17.6,23,30.07,10.0,WSW,6.9,-,N/A,,Clear,240,2013-02-20 20:55:00
4:15 PM,55.4,15.8,21,30.07,10.0,West,4.6,-,N/A,,Clear,280,2013-02-20 21:15:00
4:35 PM,55.4,15.8,21,30.08,10.0,West,5.8,-,N/A,,Clear,280,2013-02-20 21:35:00
4:55 PM,53.6,15.8,22,30.10,10.0,West,10.4,16.1,N/A,,Scattered Clouds,270,2013-02-20 21:55:00
5:15 PM,53.6,14.0,21,30.09,10.0,WNW,5.8,-,N/A,,Overcast,290,2013-02-20 22:15:00
5:35 PM,51.8,17.6,26,30.10,10.0,West,6.9,-,N/A,,Overcast,260,2013-02-20 22:35:00
5:55 PM,51.8,17.6,26,30.11,10.0,West,8.1,-,N/A,,Overcast,260,2013-02-20 22:55:00
6:15 PM,51.8,15.8,24,30.09,10.0,WNW,5.8,-,N/A,,Overcast,290,2013-02-20 23:15:00
6:35 PM,50.0,17.6,28,30.10,10.0,WSW,4.6,-,N/A,,Overcast,250,2013-02-20 23:35:00
6:55 PM,50.0,17.6,28,30.08,10.0,WSW,4.6,-,N/A,,Mostly Cloudy,240,2013-02-20 23:55:00
7:15 PM,48.2,17.6,30,30.06,10.0,WSW,3.5,-,N/A,,Scattered Clouds,250,2013-02-21 00:15:00
7:35 PM,46.4,17.6,32,30.05,10.0,Calm,Calm,-,N/A,,Clear,0,2013-02-21 00:35:00
7:55 PM,46.4,19.4,34,30.03,10.0,Calm,Calm,-,N/A,,Clear,0,2013-02-21 00:55:00
8:15 PM,44.6,17.6,34,30.05,10.0,Calm,Calm,-,N/A,,Clear,0,2013-02-21 01:15:00
8:35 PM,44.6,17.6,34,30.06,10.0,WSW,3.5,-,N/A,,Clear,250,2013-02-21 01:35:00
8:55 PM,44.6,17.6,34,30.06,10.0,West,3.5,-,N/A,,Clear,260,2013-02-21 01:55:00
9:15 PM,44.6,17.6,34,30.07,10.0,WSW,3.5,-,N/A,,Clear,250,2013-02-21 02:15:00
9:35 PM,44.6,19.4,37,30.08,10.0,WSW,3.5,-,N/A,,Scattered Clouds,250,2013-02-21 02:35:00
9:55 PM,44.6,17.6,34,30.08,10.0,West,3.5,-,N/A,,Scattered Clouds,260,2013-02-21 02:55:00
10:15 PM,44.6,17.6,34,30.09,10.0,WSW,3.5,-,N/A,,Clear,250,2013-02-21 03:15:00
10:35 PM,42.8,17.6,36,30.08,10.0,West,3.5,-,N/A,,Clear,260,2013-02-21 03:35:00
10:55 PM,42.8,17.6,36,30.08,10.0,WSW,3.5,-,N/A,,Clear,250,2013-02-21 03:55:00
11:15 PM,42.8,17.6,36,30.08,10.0,West,3.5,-,N/A,,Scattered Clouds,260,2013-02-21 04:15:00
11:35 PM,42.8,17.6,36,30.07,10.0,Calm,Calm,-,N/A,,Mostly Cloudy,0,2013-02-21 04:35:00
11:55 PM,42.8,17.6,36,30.08,10.0,WSW,3.5,-,N/A,,Scattered Clouds,250,2013-02-21 04:55:00